[[{"header":{"parameterUnit":"m.s-1","parameterCategory":1,"la1":30.2991,"la2":30.254,"lo1":-89.0895,"lo2":-89.0444,"dy":0.0017,"dx":0.0017,"nx":28,"ny":28,"refTime":"2025-04-19T09:00:00:Z","depth":0,"parameterNumber":2,"parameterNumberName":"U-component_of_WINDS"},"data":[0,0,0,0,0,0,0,0,0,0,0,0,0,0,0,0,0,0,0,0,0,0,0,0,0,0,0,0,0,0,0,0,0,0,0,0,0,0,0,0,0,0,0,0,0,0,0,0,0,0,0,0,0,0,0,0,0,0,-5.0357,-5.0358,0,-5.0458,-5.0459,-5.046,-5.0419,-5.0417,-5.0414,-5.0412,-5.0514,-5.0519,-5.0524,0,0,0,0,0,0,0,0,0,0,0,0,0,-5.0127,-5.0132,-5.0357,-5.0358,-5.036,-5.0458,-5.0459,-5.0461,-5.0419,-5.0417,-5.0414,-5.0411,-5.0512,-5.0518,-5.0524,0,0,0,0,0,0,0,0,0,0,0,0,0,-5.0227,-5.0133,-5.0357,-5.0351,-5.0351,-5.0458,-5.0459,-5.0461,-5.042,-5.0416,-5.0413,-5.041,-5.051,-5.0518,-5.0525,-5.0642,0,0,-5.0548,-5.0551,0,0,0,0,0,0,0,0,-5.0222,-5.0236,-5.0351,-5.0352,-5.0352,-5.0422,-5.0415,-5.0522,-5.0421,-5.0394,-5.0412,-5.0408,-5.0486,-5.0495,-5.0522,-5.0647,-5.0651,-5.0548,-5.0553,-5.0556,-5.0558,0,0,0,0,0,0,0,-5.0215,-5.0231,-5.0397,-5.0352,-5.0353,-5.0343,-5.0353,-5.0435,-5.0459,-5.0396,-5.0393,-5.0406,-5.0486,-5.0515,-5.0524,-5.0653,-5.0548,-5.0555,-5.0559,-5.0562,-5.0878,-5.0882,0,0,0,0,0,0,-5.0208,-5.0226,-5.0394,-5.04,-5.0277,-5.035,-5.0361,-5.0403,-5.0458,-5.0463,-5.0409,-5.0404,-5.0504,-5.0516,-5.0528,-5.0667,-5.0556,-5.0563,-5.0567,-5.0874,-5.0879,-5.0883,0,0,0,0,0,0,-5.0203,-5.0223,-5.039,-5.0312,-5.0333,-5.0358,-5.0405,-5.0407,-5.0436,-5.0468,-5.0471,-5.0434,-5.0502,-5.0517,-5.0614,-5.067,-5.0566,-5.0573,-5.0869,-5.0876,-5.0881,-5.0949,0,0,0,0,0,0,-5.0197,-5.0222,-5.0267,-5.0314,-5.0337,-5.0475,-5.0409,-5.0412,-5.0449,-5.0443,-5.0493,-5.0497,-5.05,-5.0603,-5.0621,-5.0679,-5.0579,-5.0864,-5.0872,-5.0879,-5.0941,-5.0956,-5.0969,0,0,0,0,0,-5.0189,-5.0282,-5.027,-5.029,-5.0394,-5.0478,-5.0491,-5.0493,-5.0454,-5.0499,-5.0519,-5.0496,-5.0662,-5.0613,-5.0634,-5.0694,-5.0861,-5.087,-5.0879,-5.0935,-5.0953,-5.0968,0,0,0,0,0,0,-5.0241,-5.0288,-5.0275,-5.0386,-5.0429,-5.0471,-5.0528,-5.0513,-5.0567,-5.0559,-5.0559,-5.057,-5.0669,-5.0692,-5.0637,-5.081,-5.0755,-5.0769,-5.0791,-5.0809,-5.0822,-5.0814,-5.0585,0,0,0,0,0,-5.0266,-5.0331,-5.0368,-5.0463,-5.0485,-5.0503,-5.054,-5.0538,-5.0581,-5.0599,-5.0626,-5.0669,-5.0731,-5.0771,-5.083,-5.0945,-5.0954,-5.0997,-5.101,-5.1021,-5.1032,-5.1093,-5.1112,-5.0912,-5.0912,-5.0912,0,0,-5.0317,-5.0351,-5.0392,-5.0474,-5.0507,-5.0573,-5.0518,-5.0591,-5.064,-5.061,-5.0702,-5.0724,-5.0772,-5.0878,-5.0926,-5.0899,-5.109,-5.1033,-5.1041,-5.1046,-5.1104,-5.1123,-5.114,-5.0918,-5.0917,-5.0916,0,0,-5.0444,-5.0477,-5.0559,-5.0593,-5.0643,-5.0654,-5.0674,-5.0719,-5.0732,-5.0826,-5.0804,-5.0862,-5.0969,-5.1003,-5.1035,-5.1175,-5.1155,-5.1195,-5.1265,-5.1325,-5.134,-5.1354,-5.1402,-5.142,-5.1206,-5.1206,-5.1206,0,-5.0502,-5.0601,-5.0603,-5.0677,-5.0713,-5.069,-5.0772,-5.0805,-5.0871,-5.0897,-5.0866,-5.0999,-5.103,-5.1143,-5.1177,-5.1204,-5.1226,-5.1188,-5.1338,-5.1352,-5.1365,-5.1411,-5.1429,-5.121,-5.121,-5.1209,-5.1209,0,-5.0668,-5.0738,-5.0798,-5.0863,-5.0906,-5.0984,-5.0997,-5.104,-5.1035,-5.1049,-5.1144,-5.118,-5.1245,-5.1272,-5.1267,-5.1384,-5.1366,-5.1337,-5.1282,-5.1388,-5.1431,-5.1449,-5.1217,-5.1215,-5.1214,-5.1213,0,0,-5.083,-5.0895,-5.0917,-5.0946,-5.0999,-5.1053,-5.113,-5.1193,-5.123,-5.1277,-5.134,-5.1431,-5.1405,-5.1441,-5.144,-5.1492,-5.1599,-5.1457,-5.1458,-5.148,-5.1728,-5.1748,-5.1769,-5.1587,-5.159,-5.1593,-5.1724,0,-5.096,-5.1095,-5.1098,-5.1221,-5.1284,-5.1263,-5.1329,-5.1369,-5.1385,-5.1441,-5.1458,-5.1522,-5.1483,-5.1504,-5.1555,-5.1575,-5.1648,-5.1566,-5.1644,-5.1647,-5.1631,-5.1792,-5.1813,-5.1935,-5.1741,-5.1744,-5.1746,0,-5.1129,-5.1181,-5.1311,-5.1354,-5.1381,-5.1441,-5.1499,-5.1553,-5.1597,-5.1605,-5.1645,-5.1637,-5.1714,-5.1658,-5.1764,-5.1708,-5.174,-5.1755,-5.1759,-5.1765,-5.1701,-5.18,-5.1974,-5.1992,-5.1773,-5.1771,-5.1769,0,-5.1232,-5.1335,-5.1425,-5.1451,-5.1504,-5.1547,-5.1571,-5.1612,-5.165,-5.1701,-5.1725,-5.1785,-5.1817,-5.1863,-5.187,-5.1829,-5.1976,-5.192,-5.1983,-5.1983,-5.2013,-5.2011,-5.2193,-5.2038,-5.2038,-5.2037,-5.2037,0,-5.1376,-5.1455,-5.1472,-5.1527,-5.1615,-5.1618,-5.1705,-5.1726,-5.1763,-5.1821,-5.1807,-5.1862,-5.1869,-5.1926,-5.1932,-5.2018,-5.2033,-5.2041,-5.2041,-5.2041,-5.204,-5.2061,-5.2052,-5.2042,-5.2041,-5.204,-5.2039,0,-5.1505,-5.152,-5.1616,-5.1659,-5.1672,-5.1734,-5.1771,-5.1823,-5.1838,-5.1912,-5.1929,-5.1952,-5.2018,-5.203,-5.2108,-5.2112,-5.2214,-5.2207,-5.2199,-5.2198,-5.2259,-5.2252,-5.2459,-5.2486,-5.2315,-5.2316,-5.2318,0,-5.1595,-5.1655,-5.1704,-5.1742,-5.1769,-5.1831,-5.1869,-5.1875,-5.1915,-5.197,-5.2016,-5.208,-5.2132,-5.2238,-5.2261,-5.2321,-5.2314,-5.2382,-5.2322,-5.232,-5.2312,-5.2308,-5.2313,-5.2393,-5.2395,-5.2396,-5.2398,0,-5.1752,-5.1756,-5.1812,-5.1871,-5.1917,-5.1963,-5.2007,-5.2039,-5.2051,-5.2097,-5.2164,-5.2204,-5.2284,-5.2348,-5.2407,-5.2431,-5.2416,-5.2417,-5.2434,-5.2433,-5.2425,-5.2429,-5.2228,-5.2411,-5.241,-5.2409,-5.2408,-5.2408,-5.1863,-5.1915,-5.1957,-5.202,-5.2054,-5.2095,-5.2146,-5.2167,-5.2223,-5.2288,-5.2288,-5.2362,-5.2404,-5.2482,-5.251,-5.2567,-5.2545,-5.257,-5.2577,-5.2582,-5.2587,-5.2418,-5.2578,-5.2578,-5.2577,-5.2577,-5.2577,0,-5.2017,-5.2044,-5.2102,-5.2163,-5.2212,-5.2195,-5.2242,-5.2284,-5.2349,-5.239,-5.2441,-5.2518,-5.258,-5.2608,-5.2668,-5.2708,-5.2703,-5.2724,-5.272,-5.2726,-5.2604,-5.2582,-5.2727,-5.2727,-5.2727,-5.2727,-5.2727,-5.2727,-5.2104,-5.2191,-5.22,-5.2303,-5.2328,-5.24,-5.2429,-5.2466,-5.2499,-5.2585,-5.2636,-5.2654,-5.269,-5.2753,-5.2808,-5.2815,-5.2837,-5.2861,-5.2864,-5.275,-5.2734,-5.272,-5.2699,-5.2866,-5.2866,-5.2981,-5.2982,-5.2983]},{"header":{"parameterUnit":"m.s-1","parameterCategory":1,"la1":30.2991,"la2":30.254,"lo1":-89.0895,"lo2":-89.0444,"dy":0.0017,"dx":0.0017,"nx":28,"ny":28,"refTime":"2025-04-19T09:00:00:Z","depth":0,"parameterNumber":3,"parameterNumberName":"V-component_of_WINDS"},"data":[0,0,0,0,0,0,0,0,0,0,0,0,0,0,0,0,0,0,0,0,0,0,0,0,0,0,0,0,0,0,0,0,0,0,0,0,0,0,0,0,0,0,0,0,0,0,0,0,0,0,0,0,0,0,0,0,0,0,3.9022,3.9023,0,3.9086,3.9087,3.9088,3.9069,3.9067,3.9066,3.9065,3.9126,3.9129,3.9132,0,0,0,0,0,0,0,0,0,0,0,0,0,3.8879,3.8882,3.9022,3.9023,3.9023,3.9086,3.9087,3.9088,3.9069,3.9067,3.9066,3.9064,3.9125,3.9129,3.9132,0,0,0,0,0,0,0,0,0,0,0,0,0,3.8942,3.8882,3.9022,3.9022,3.9022,3.9086,3.9087,3.9088,3.9069,3.9067,3.9065,3.9063,3.9124,3.9128,3.9133,3.9199,0,0,3.9146,3.9148,0,0,0,0,0,0,0,0,3.8938,3.8947,3.9021,3.9022,3.9023,3.9067,3.9059,3.9125,3.907,3.9051,3.9065,3.9062,3.9108,3.9113,3.913,3.9202,3.9204,3.9146,3.9149,3.9151,3.9152,0,0,0,0,0,0,0,3.8934,3.8944,3.9047,3.9022,3.9023,3.9017,3.9024,3.9072,3.909,3.9053,3.9051,3.906,3.9108,3.9126,3.9131,3.9205,3.9146,3.915,3.9152,3.9154,3.9336,3.9338,0,0,0,0,0,0,3.8929,3.8941,3.9045,3.9049,3.8975,3.9021,3.9029,3.9055,3.9089,3.9093,3.9061,3.9058,3.9119,3.9126,3.9133,3.9214,3.9151,3.9155,3.9157,3.9334,3.9336,3.9339,0,0,0,0,0,0,3.8926,3.8939,3.9042,3.8995,3.9007,3.9026,3.9055,3.9057,3.9075,3.9096,3.9098,3.9076,3.9118,3.9127,3.9183,3.9216,3.9157,3.916,3.9331,3.9335,3.9338,3.9375,0,0,0,0,0,0,3.8922,3.8938,3.8964,3.8995,3.901,3.9093,3.9057,3.906,3.9083,3.908,3.911,3.9114,3.9117,3.9177,3.9188,3.922,3.9164,3.9328,3.9333,3.9337,3.9371,3.9379,3.9386,0,0,0,0,0,3.8917,3.8971,3.8966,3.8978,3.9043,3.9095,3.9103,3.9107,3.9086,3.9112,3.9125,3.9113,3.9211,3.9183,3.9195,3.9229,3.9326,3.9331,3.9336,3.9368,3.9378,3.9386,0,0,0,0,0,0,3.8941,3.8975,3.8969,3.9035,3.9062,3.9091,3.9124,3.9117,3.915,3.9146,3.9148,3.9155,3.9213,3.9227,3.9195,3.9296,3.9265,3.9273,3.9285,3.9295,3.9302,3.9297,3.9167,0,0,0,0,0,3.8954,3.8994,3.9021,3.9076,3.9091,3.9105,3.9127,3.9129,3.9156,3.9167,3.9185,3.9211,3.9248,3.9272,3.9307,3.9373,3.9379,3.9403,3.941,3.9417,3.9423,3.946,3.947,3.9355,3.9355,3.9355,0,0,3.8981,3.9005,3.9029,3.9082,3.9103,3.9144,3.9115,3.9158,3.9188,3.9173,3.9228,3.9242,3.9272,3.9334,3.9361,3.9347,3.9457,3.9423,3.9428,3.9431,3.9466,3.9477,3.9487,3.9359,3.9358,3.9358,0,0,3.9051,3.9073,3.9122,3.9144,3.9178,3.9187,3.9199,3.923,3.9239,3.9294,3.9284,3.9319,3.9382,3.9404,3.9423,3.9503,3.9493,3.9515,3.9554,3.959,3.9599,3.9607,3.9636,3.9646,3.9521,3.9521,3.9521,0,3.908,3.9142,3.9147,3.9193,3.9216,3.9206,3.9256,3.9277,3.9319,3.9335,3.9318,3.9398,3.9417,3.9484,3.9504,3.952,3.9533,3.9511,3.9598,3.9606,3.9613,3.9641,3.9652,3.9523,3.9523,3.9523,3.9523,0,3.9176,3.9219,3.9254,3.9298,3.9325,3.9372,3.9383,3.941,3.9409,3.942,3.9477,3.95,3.954,3.9556,3.9554,3.9623,3.9613,3.9597,3.9566,3.9627,3.9652,3.9663,3.9527,3.9526,3.9525,3.9525,0,0,3.9261,3.9309,3.9321,3.9341,3.9378,3.9411,3.9458,3.9498,3.9521,3.9551,3.959,3.9644,3.963,3.9652,3.9653,3.9685,3.9747,3.9665,3.9666,3.968,3.9824,3.9836,3.9848,3.9741,3.9743,3.9744,3.9822,0,3.9334,3.9418,3.9425,3.95,3.954,3.9532,3.9572,3.9599,3.9611,3.9645,3.9658,3.9697,3.9675,3.9688,3.9719,3.9733,3.9776,3.9727,3.9776,3.9778,3.9769,3.9862,3.9874,3.9946,3.9832,3.9834,3.9835,0,3.9431,3.9466,3.9545,3.9578,3.9595,3.9631,3.9669,3.9703,3.9733,3.9739,3.9765,3.9762,3.9809,3.9777,3.9842,3.9809,3.9829,3.9839,3.9842,3.9846,3.981,3.9869,3.9969,3.998,3.9851,3.985,3.9848,0,3.9486,3.9553,3.9609,3.9626,3.9665,3.9691,3.9708,3.9736,3.9761,3.9794,3.981,3.9847,3.9868,3.9896,3.9904,3.988,3.9968,3.9937,3.9974,3.9974,3.9993,3.9992,4.0098,4.0006,4.0006,4.0006,4.0006,0,3.9567,3.9616,3.9635,3.9669,3.9724,3.9731,3.9784,3.9799,3.9825,3.9862,3.9856,3.9891,3.9898,3.9934,3.994,3.9993,4.0002,4.0008,4.0009,4.0008,4.0008,4.0021,4.0017,4.0009,4.0008,4.0008,4.0007,0,3.9638,3.9652,3.9713,3.9746,3.9755,3.9794,3.9821,3.9854,3.9866,3.9913,3.9924,3.9942,3.9984,3.9994,4.0043,4.0047,4.011,4.0106,4.0101,4.01,4.0138,4.0134,4.0257,4.0273,4.017,4.0171,4.0172,0,3.9689,3.9726,3.9764,3.9789,3.9808,3.9848,3.9874,3.9882,3.9909,3.9946,3.9975,4.0016,4.005,4.0117,4.0134,4.0172,4.0169,4.0209,4.0174,4.0173,4.017,4.0167,4.0171,4.0216,4.0217,4.0218,4.0218,0,3.9778,3.9783,3.9821,3.9862,3.9893,3.9925,3.9955,3.9976,3.9988,4.0018,4.0062,4.0089,4.014,4.0181,4.022,4.0236,4.023,4.0229,4.024,4.024,4.0236,4.0239,4.0119,4.0226,4.0226,4.0225,4.0225,4.0224,3.984,3.9874,3.9906,3.9948,3.9973,4.0002,4.0035,4.0051,4.0089,4.0132,4.0135,4.0182,4.0211,4.0263,4.0281,4.0318,4.0306,4.0321,4.0325,4.0329,4.0332,4.023,4.0325,4.0325,4.0325,4.0324,4.0324,0,3.9929,3.995,3.9989,4.0033,4.0067,4.0059,4.0093,4.0121,4.0163,4.0192,4.0226,4.0276,4.0317,4.0337,4.0377,4.0402,4.04,4.0413,4.0411,4.0415,4.0341,4.0328,4.0414,4.0414,4.0414,4.0414,4.0414,4.0414,3.998,4.0037,4.0046,4.0115,4.0135,4.0183,4.0203,4.0229,4.0252,4.0309,4.0344,4.0357,4.0383,4.0425,4.0461,4.0466,4.0481,4.0495,4.0498,4.0429,4.042,4.0411,4.0399,4.0498,4.0498,4.0569,4.0569,4.057]}]]